Weather History for KRMG - November, 2013

Change the Weather History Date:

Wednesday, November 13, 2013

  Actual Average Record
Temperature  
Mean Temperature 37 °F 52 °F  
Max Temperature 50 °F 64 °F 73 °F (2007)
Min Temperature 24 °F 39 °F 24 °F (2013)
Degree Days  
Heating Degree Days 28 13  
Month to date heating degree days 177 151  
Since 1 July heating degree days 313 328  
Moisture  
Dew Point 16 °F    
Average Humidity 46    
Maximum Humidity 69    
Minimum Humidity 23    
Precipitation  
Precipitation 0.00 in 0.15 in 0.11 in (2008)
Month to date precipitation 0.50 1.81  
Year to date precipitation 44.50  
Snow  
Snow 0.00 in - - ()
Month to date snowfall 0.0  
Since 1 July snowfall 0.0  
Since 1 September snowfall 0.0  
Snow Depth 0.00 in    
Sea Level Pressure  
Sea Level Pressure 30.53 in    
Wind  
Wind Speed 6 mph (North)    
Max Wind Speed 16 mph    
Max Gust Speed 21 mph    
Visibility 10 miles    
Events      
T = Trace of Precipitation, MM = Missing Value Source: NWS Daily Summary

Daily Weather History Graph

Daily Weather History Graph

Search for Another Location

Airport or City:

Trip Planner

Search our weather history database for the weather conditions in past years. The results will help you decide how hot, cold, wet, or windy it might be!

Date:

Astronomy

Nov. 13, 2013 Rise Set
Actual Time 7:12 AM EST 5:37 PM EST
Civil Twilight 6:45 AM EST 6:04 PM EST
Nautical Twilight 6:15 AM EST 6:34 PM EST
Astronomical Twilight 5:45 AM EST 7:03 PM EST
Moon 3:15 PM EST (11/13) 3:14 AM EST (11/13)
Length of Visible Light 11h 18m
Length of Day
10h 25m
Waxing Gibbous, 84% of the Moon is Illuminated
Nov 13
Waxing Gibbous
Nov 17
Full
Nov 25
Last Quarter
Dec 2
New
Dec 9
First Quarter

Hourly Weather History & Observations

Time (EST) Temp. Windchill Dew Point Humidity Pressure Visibility Wind Dir Wind Speed Gust Speed Precip Events Conditions
12:53 AM 32.0 °F 23.6 °F 16.0 °F 52% 30.51 in 10.0 mi North 10.4 mph - N/A   Clear
1:53 AM 30.9 °F 20.2 °F 16.0 °F 54% 30.52 in 10.0 mi North 15.0 mph - N/A   Clear
2:53 AM 30.0 °F 23.2 °F 16.0 °F 56% 30.52 in 10.0 mi North 6.9 mph - N/A   Clear
3:53 AM 28.9 °F 22.8 °F 16.0 °F 58% 30.52 in 10.0 mi North 5.8 mph - N/A   Clear
4:53 AM 28.9 °F 21.9 °F 16.0 °F 58% 30.53 in 10.0 mi NNW 6.9 mph - N/A   Clear
5:53 AM 27.0 °F 19.5 °F 16.0 °F 63% 30.54 in 10.0 mi NNW 6.9 mph - N/A   Clear
6:53 AM 27.0 °F - 16.0 °F 63% 30.57 in 10.0 mi Calm Calm - N/A   Clear
7:53 AM 28.9 °F 25.2 °F 18.0 °F 64% 30.60 in 10.0 mi North 3.5 mph - N/A   Clear
8:53 AM 33.1 °F 24.9 °F 18.0 °F 54% 30.62 in 10.0 mi North 10.4 mph - N/A   Clear
9:53 AM 37.0 °F 29.8 °F 18.0 °F 46% 30.62 in 10.0 mi North 10.4 mph - N/A   Clear
10:53 AM 39.9 °F 34.5 °F 16.0 °F 38% 30.62 in 10.0 mi NE 8.1 mph - N/A   Clear
11:53 AM 44.1 °F 39.0 °F 12.9 °F 28% 30.59 in 10.0 mi NNE 9.2 mph - N/A   Clear
12:53 PM 46.9 °F - 12.9 °F 25% 30.55 in 10.0 mi NNW 6.9 mph - N/A   Clear
1:53 PM 48.0 °F - 12.0 °F 24% 30.52 in 10.0 mi NNW 9.2 mph - N/A   Clear
2:53 PM 48.9 °F - 12.0 °F 23% 30.50 in 10.0 mi NNE 6.9 mph - N/A   Clear
3:53 PM 48.9 °F - 12.0 °F 23% 30.49 in 10.0 mi Calm Calm - N/A   Clear
4:53 PM 48.0 °F - 12.9 °F 24% 30.48 in 10.0 mi NNE 5.8 mph - N/A   Clear
5:53 PM 43.0 °F 40.3 °F 14.0 °F 31% 30.48 in 10.0 mi North 4.6 mph - N/A   Clear
6:53 PM 39.0 °F - 17.1 °F 41% 30.50 in 10.0 mi Calm Calm - N/A   Clear
7:53 PM 34.0 °F 31.0 °F 19.9 °F 56% 30.50 in 10.0 mi NNW 3.5 mph - N/A   Clear
8:53 PM 30.9 °F - 19.0 °F 61% 30.51 in 10.0 mi Calm Calm - N/A   Clear
9:53 PM 28.0 °F 24.2 °F 19.9 °F 72% 30.50 in 10.0 mi NNE 3.5 mph - N/A   Clear
10:53 PM 28.0 °F - 19.9 °F 72% 30.49 in 10.0 mi Calm Calm - N/A   Clear
11:53 PM 26.1 °F - 19.9 °F 78% 30.49 in 10.0 mi Calm Calm - N/A   Clear